[ hide orbit diagram ]
For accurate long-term ephemerides, please instead use our Horizons system.This orbit viewer was implemented using two-body methods, and hence should not be used for determining accurate long-term trajectories (over several years or decades) or planetary encounter circumstances.
Orbital Elements at Epoch 2459200.5 (2020-Dec-17.0) TDB
Reference: JPL 43 (heliocentric ecliptic J2000)
Element | Value | Uncertainty (1-sigma) | Units |
e | .07576578090211314 | 6.1331e-08 | |
a | 1.577884362242134 | 2.6832e-09 | au |
q | 1.458334721363626 | 9.476e-08 | au |
i | 14.84734324646258 | 2.711e-06 | deg |
node | 95.44301284998463 | 1.0584e-05 | deg |
peri | 115.7784208238673 | 8.1722e-05 | deg |
M | 127.1978837778297 | 6.7685e-05 | deg |
tp | 2458944.707050254443 (2020-Apr-05.20705025) | 0.00013618 | TDB |
period | 723.9543550051653 1.98 | 1.8466e-06 5.056e-09 | d yr |
n | .4972689196647369 | 1.2684e-09 | deg/d |
Q | 1.697434003120642 | 2.8865e-09 | au |
|
| | Orbit Determination Parameters
Additional Information
|
[ show covariance matrix ]
Physical Parameter Table
Parameter |
Symbol |
Value |
Units |
Sigma |
Reference |
Notes |
absolute magnitude |
H |
15.08 |
|
n/a |
E2021B10 |
|
diameter |
diameter |
1.624 |
km |
0.128 |
urn:nasa:pds:neowise_diameters_albedos::2.0[mainbelt] (http://adsabs.harvard.edu/abs/2015ApJ...814..117N) |
|
rotation period |
rot_per |
2.2319 |
h |
n/a |
LCDB (Rev. 2020-October); Warner et al., 2009 |
Published Reference List: [Warner, B.D. (2008) Minor Planet Bull. 35, 163-167.] [Warner, B.D. (2010) Minor Planet Bull. 37, 161-165.] [Warner, B.D. (2014) Minor Planet Bull. 41, 144-155.] [Franco, L.; Bacci, P.; Maestripieri, M.; Carotta, G.; et al. (2018) Minor Planet Bull. 45, 403.] [Klinglesmith III, D.A.; Lovata, E.A. (2018) Minor Planet Bull. 45, 397-398.] [Skiff, B.A. (2018) Posting on CALL web site: http://www.minorplanet.info/call.html] [Warner, B.D. (2018) Minor Planet Bull. 45, 380-386.] [Behrend, R. (2020) Observatoire de Geneve web site, http://obswww.unige.ch/~behrend/page_cou.html] [Dose, E.V. (2020) Minor Planet Bull. 47, 324-330.] [Franco, L.; Marchini, A.; Scarfi, G.; Papini, R.; et al. (2020) Minor Planet Bull. 47, 270-272.] |
geometric albedo |
albedo |
0.657 |
|
0.123 |
urn:nasa:pds:neowise_diameters_albedos::2.0[mainbelt] (http://adsabs.harvard.edu/abs/2015ApJ...814..117N) |
|
SMASSII spectral type |
spec_B |
S |
|
n/a |
EAR-A-5-DDR-TAXONOMY-V4.0 |
based on a high-resolution spectrum by Xu et al. (1995) or Bus and Binzel (2002) |
|
3800 Karayusuf (1984 AB) Discovered 1984-Jan-04 by Helin, E. F. at Palomar |
Reference: DISCOVERY.DB | Last Updated: 2003-08-29 |
|
[ show close-approach data ]
|